DW2770 Weather Reports


time (UTC)temp
C
wind
direction
speed
KPH
gust
KPH
rain 1hr
cm
rain 24hr
cm
rain mn
cm
humidity
%
barometer
mb
20260504081529 17 78 3.2 12.9 0.00 0.00 0.00 64 1019.5
20260504050008 14 231 1.6 4.8 0.00 0.00 0.00 60 1019.2
20260504044514 13 193 1.6 6.4 0.00 0.00 0.00 60 1018.9
20260504043017 13 187 1.6 8.0 0.00 0.00 0.00 61 1018.7
20260504041520 13 187 0.0 6.4 0.00 0.00 0.00 61 1018.6
20260504040007 13 157 0.0 4.8 0.00 0.00 0.00 61 1018.5
20260504034508 13 213 0.0 6.4 0.00 0.00 0.00 60 1018.4
20260504033016 13 200 4.8 11.3 0.00 0.00 0.00 60 1018.5
20260504031519 13 186 3.2 9.7 0.00 0.00 0.00 60 1018.5
20260504030033 13 194 0.0 8.0 0.00 0.00 0.00 61 1018.6
20260504024509 13 190 1.6 8.0 0.00 0.00 0.00 61 1018.6
20260504023011 13 189 1.6 12.9 0.00 0.00 0.00 62 1018.8
20260504021517 13 198 6.4 12.9 0.00 0.00 0.00 62 1018.8
20260504020022 13 206 4.8 11.3 0.00 0.00 0.00 63 1018.9
20260504014523 13 175 4.8 11.3 0.00 0.00 0.00 65 1018.9
20260504013010 13 191 6.4 12.9 0.00 0.00 0.00 66 1018.8
20260504011511 13 190 4.8 11.3 0.00 0.00 0.00 69 1018.8
20260504010003 13 194 3.2 9.7 0.00 0.00 0.00 68 1018.8
20260504004506 14 196 3.2 9.7 0.00 0.00 0.00 67 1018.8
20260504003006 14 213 4.8 11.3 0.00 0.00 0.00 67 1018.9
20260504001512 13 203 3.2 6.4 0.00 0.00 0.00 69 1018.9
20260504000004 13 185 3.2 6.4 0.00 0.00 0.00 68 1018.9
20260503234505 13 192 6.4 9.7 0.00 0.00 0.00 67 1018.9
20260503233005 13 182 6.4 12.9 0.00 0.00 0.00 65 1019.1
20260503231508 13 213 4.8 14.5 0.00 0.00 0.00 65 1019.2
20260503230012 13 196 4.8 9.7 0.00 0.00 0.00 64 1019.3
20260503224503 14 186 3.2 12.9 0.00 0.00 0.00 62 1019.5
20260503223004 14 192 6.4 12.9 0.00 0.00 0.00 62 1019.6
20260503221508 14 173 1.6 8.0 0.00 0.00 0.00 62 1019.7
20260503220029 14 200 6.4 11.3 0.00 0.00 0.00 60 1019.6
20260503214514 14 208 4.8 9.7 0.00 0.00 0.00 59 1019.5
20260503213008 14 193 3.2 9.7 0.00 0.00 0.00 59 1019.5
20260503211505 14 188 1.6 8.0 0.00 0.00 0.00 58 1019.5
20260503210008 15 212 3.2 6.4 0.00 0.00 0.00 58 1019.6
20260503204514 15 234 1.6 6.4 0.00 0.00 0.00 55 1019.6
20260503203028 15 146 0.0 1.6 0.00 0.00 0.00 55 1019.2
20260503201505 15 178 0.0 4.8 0.00 0.00 0.00 55 1019.2
20260503200004 15 182 0.0 8.0 0.00 0.00 0.00 53 1019.4
20260503194512 15 188 0.0 1.6 0.00 0.00 0.00 52 1019.4
20260503193017 15 150 0.0 3.2 0.00 0.00 0.00 53 1019.4
20260503191522 16 109 3.2 9.7 0.00 0.00 0.00 61 1019.3
20260503190004 16 72 0.0 6.4 0.00 0.00 0.00 62 1019.1
20260503184510 16 92 1.6 12.9 0.00 0.00 0.00 64 1018.7
20260503183019 16 96 0.0 4.8 0.00 0.00 0.00 64 1018.9
20260503181526 16 115 0.0 3.2 0.00 0.00 0.00 64 1018.8
20260503180026 16 96 1.6 6.4 0.00 0.00 0.00 63 1018.8
20260503174504 16 113 3.2 9.7 0.00 0.00 0.00 62 1018.9
20260503173022 16 127 4.8 14.5 0.00 0.00 0.00 59 1018.8
20260503171516 17 108 3.2 11.3 0.00 0.00 0.00 58 1018.7